Weather reports worldwide

Advertisment
Honolulu HI/Oahu, United States of America (91182): temperature & dewpoint: 13.05.2019 09:00:00 - 19.05.2019 09:00:00 (HST)Honolulu HI/Oahu, United States of America (91182): wind speed: 13.05.2019 09:00:00 - 19.05.2019 09:00:00 (HST)Honolulu HI/Oahu, United States of America (91182): wind direction: 13.05.2019 09:00:00 - 19.05.2019 09:00:00 (HST)Honolulu HI/Oahu, United States of America (91182): reduced air pressure: 13.05.2019 09:00:00 - 19.05.2019 09:00:00 (HST)Honolulu HI/Oahu, United States of America (91182): visibility: 13.05.2019 09:00:00 - 19.05.2019 09:00:00 (HST)Honolulu HI/Oahu, United States of America (91182): precipitation: 13.05.2019 09:00:00 - 19.05.2019 09:00:00 (HST)
Date & Time tt [°C] td [°C] ff [km/h] ff [kn] dd ppp [hPa] vv [km] rr [mm]
19.05.2019 09:00:00 28,9 20,6 16 9 ENE 1018,2 16 -
19.05.2019 08:00:00 26,7 21,1 9 5 NE 1018,3 16 0,0
19.05.2019 07:00:00 25,0 21,1 8 4 NNE 1018,0 16 -
19.05.2019 06:00:00 23,9 20,6 8 4 NNE 1017,7 16 -
19.05.2019 05:00:00 24,4 20,6 0 0 N 1017,5 16 -
19.05.2019 04:00:00 25,0 20,6 9 5 NE 1017,0 16 -
19.05.2019 03:00:00 26,1 20,6 11 6 NE 1017,4 16 -
19.05.2019 02:00:00 25,6 20,6 11 6 ENE 1017,8 16 0,0
19.05.2019 01:00:00 26,1 20,0 18 10 ENE 1018,3 16 -
19.05.2019 00:00:00 26,7 20,0 16 9 ENE 1019,0 16 -
18.05.2019 23:00:00 26,7 20,6 22 12 ENE 1019,1 16 -
18.05.2019 22:00:00 26,7 20,6 21 11 ENE 1018,7 16 -
18.05.2019 21:00:00 26,7 20,6 21 11 ENE 1018,4 16 -
18.05.2019 20:00:00 26,7 20,0 28 15 ENE 1017,7 16 0,0
18.05.2019 19:00:00 27,2 19,4 29 16 ENE 1017,1 16 -
18.05.2019 18:00:00 28,9 19,4 28 15 ENE 1016,8 16 -
18.05.2019 17:00:00 28,9 18,9 26 14 ENE 1016,5 16 -
18.05.2019 16:00:00 29,4 19,4 22 12 ENE 1016,6 16 -
18.05.2019 15:00:00 30,0 20,0 22 12 NE 1017,1 16 -
18.05.2019 14:00:00 29,4 19,4 29 16 E 1017,7 16 0,0
18.05.2019 13:00:00 29,4 20,6 24 13 E 1018,3 16 -
18.05.2019 12:00:00 28,9 21,1 21 11 NNE 1018,7 16 -
18.05.2019 11:00:00 30,0 20,6 22 12 ENE 1019,1 16 -
18.05.2019 10:00:00 28,9 20,0 21 11 NE 1019,1 16 -
18.05.2019 09:00:00 26,7 20,0 18 10 ENE 1019,2 16 -
18.05.2019 08:00:00 24,4 21,7 15 8 E 1019,0 16 -
18.05.2019 07:00:00 23,3 21,1 15 8 ENE 1018,6 16 -
18.05.2019 06:00:00 23,3 21,7 0 0 N 1018,1 16 -
18.05.2019 05:00:00 23,3 21,7 8 4 NE 1017,7 16 0,0
18.05.2019 04:00:00 23,3 21,7 5 3 NNE 1017,7 16 0,3
18.05.2019 03:00:00 25,0 20,6 9 5 - 1017,9 16 -
18.05.2019 02:00:00 24,4 20,6 13 7 NNE 1018,4 16 0,0
18.05.2019 01:00:00 25,0 20,6 22 12 NE 1019,1 16 -
18.05.2019 00:00:00 25,6 20,6 13 7 NE 1019,3 16 -
17.05.2019 23:00:00 26,1 20,6 16 9 NE 1019,7 16 -
17.05.2019 22:00:00 26,1 20,0 15 8 NE 1019,3 16 -
17.05.2019 21:00:00 26,1 19,4 15 8 NE 1018,8 16 -
17.05.2019 20:00:00 26,7 19,4 21 11 ENE 1018,4 16 0,0
17.05.2019 19:00:00 27,2 20,0 24 13 E 1018,0 16 -
17.05.2019 18:00:00 28,3 20,0 21 11 NE 1017,5 16 -
17.05.2019 17:00:00 29,4 19,4 21 11 NE 1017,5 16 -
17.05.2019 16:00:00 29,4 20,0 28 15 NE 1017,8 16 -
17.05.2019 15:00:00 31,1 20,6 28 15 ENE 1018,2 16 -
17.05.2019 14:00:00 30,6 20,6 24 13 NE 1018,6 16 0,0
17.05.2019 13:00:00 31,1 20,6 22 12 NE 1019,1 16 -
17.05.2019 12:00:00 31,1 20,0 16 9 NE 1019,5 16 -
17.05.2019 11:00:00 30,0 20,6 22 12 ENE 1019,7 16 -
17.05.2019 10:00:00 28,3 20,6 18 10 E 1019,8 16 -
17.05.2019 09:00:00 27,2 20,6 15 8 ENE 1019,6 16 -
17.05.2019 08:00:00 26,7 21,1 24 13 ENE 1019,3 16 0,0
17.05.2019 07:00:00 25,0 21,7 13 7 E 1018,8 16 -
17.05.2019 06:00:00 24,4 21,7 8 4 ESE 1018,1 16 -
17.05.2019 05:00:00 24,4 21,7 5 3 NNE 1018,0 16 -
17.05.2019 04:00:00 25,0 21,1 21 11 ENE 1017,7 10 0,0
17.05.2019 03:00:00 25,0 21,1 13 7 ENE 1017,7 16 0,0
17.05.2019 02:00:00 25,6 20,6 9 5 NNE 1018,1 16 0,0
17.05.2019 01:00:00 25,6 20,0 21 11 ENE 1018,5 16 -
17.05.2019 00:00:00 26,1 20,0 11 6 NE 1019,0 16 -
16.05.2019 23:00:00 25,6 20,0 9 5 NE 1019,6 16 -
16.05.2019 22:00:00 25,6 20,0 18 10 NE 1019,6 16 -
16.05.2019 21:00:00 25,6 20,0 16 9 NE 1019,3 16 -
16.05.2019 20:00:00 26,1 19,4 18 10 NE 1018,8 16 0,0
16.05.2019 19:00:00 26,7 19,4 18 10 NE 1017,9 16 -
16.05.2019 18:00:00 28,3 18,9 21 11 NE 1017,5 16 -
16.05.2019 17:00:00 28,9 18,9 29 16 NNE 1017,0 16 -
16.05.2019 16:00:00 30,0 18,9 28 15 NE 1017,1 16 -
16.05.2019 15:00:00 31,1 18,9 22 12 NNE 1017,3 16 -
16.05.2019 14:00:00 31,1 18,3 26 14 NE 1017,6 16 0,0
16.05.2019 13:00:00 31,1 18,9 22 12 NNE 1018,2 16 -
16.05.2019 12:00:00 30,6 18,9 24 13 NNE 1018,7 16 -
16.05.2019 11:00:00 30,6 18,9 26 14 NE 1019,2 16 -
16.05.2019 10:00:00 29,4 18,3 22 12 NE 1019,3 16 -
16.05.2019 09:00:00 28,3 18,9 16 9 NE 1019,1 16 -
16.05.2019 08:00:00 27,2 19,4 18 10 NE 1019,1 16 0,0
16.05.2019 07:00:00 25,6 19,4 11 6 NE 1018,6 16 -
16.05.2019 06:00:00 25,6 18,9 13 7 NE 1018,2 16 -
16.05.2019 05:00:00 25,6 18,9 13 7 NE 1017,4 16 -
16.05.2019 04:00:00 25,6 18,9 9 5 - 1016,9 16 -
16.05.2019 03:00:00 25,6 18,9 8 4 NE 1016,9 16 -
16.05.2019 02:00:00 25,6 18,9 18 10 ENE 1017,2 16 0,0
16.05.2019 01:00:00 26,1 18,9 13 7 ENE 1017,9 16 -
16.05.2019 00:00:00 26,1 19,4 15 8 ENE 1018,5 16 -
15.05.2019 23:00:00 26,1 19,4 15 8 ENE 1018,9 16 -
15.05.2019 22:00:00 26,1 19,4 18 10 NE 1019,1 16 -
15.05.2019 21:00:00 26,7 20,0 18 10 ENE 1018,9 16 -
15.05.2019 20:00:00 26,7 20,0 16 9 NE 1018,4 16 0,0
15.05.2019 19:00:00 27,2 20,0 15 8 NNE 1017,7 16 -
15.05.2019 18:00:00 27,2 20,0 16 9 NE 1017,4 16 -
15.05.2019 17:00:00 28,9 19,4 24 13 N 1016,8 16 -
15.05.2019 16:00:00 29,4 18,9 24 13 NE 1016,6 16 -
15.05.2019 15:00:00 29,4 18,9 18 10 NE 1017,1 16 -
15.05.2019 14:00:00 30,0 19,4 24 13 NNE 1017,7 16 0,0
15.05.2019 13:00:00 30,0 19,4 22 12 NE 1018,3 16 -
15.05.2019 12:00:00 30,0 20,0 21 11 NE 1019,0 16 -
15.05.2019 11:00:00 28,9 20,0 16 9 NNE 1019,2 16 -
15.05.2019 10:00:00 27,8 20,6 18 10 N 1019,3 16 -
15.05.2019 09:00:00 23,9 21,1 16 9 NE 1019,4 16 -
15.05.2019 08:00:00 25,0 21,1 13 7 N 1019,0 16 0,0
15.05.2019 07:00:00 22,8 21,7 21 11 E 1018,4 16 0,0
15.05.2019 06:00:00 23,3 21,7 15 8 ENE 1017,7 15 0,0
15.05.2019 05:00:00 23,9 21,7 8 4 N 1017,2 16 0,0
15.05.2019 04:00:00 25,0 20,6 11 6 NNW 1016,7 16 -
15.05.2019 03:00:00 25,6 20,6 8 4 N 1016,9 16 -
15.05.2019 02:00:00 25,6 21,1 13 7 E 1017,3 16 0,0
15.05.2019 01:00:00 25,6 19,4 9 5 NE 1017,8 16 -
15.05.2019 00:00:00 25,6 19,4 11 6 NE 1018,5 16 -
14.05.2019 23:00:00 26,1 20,0 18 10 ENE 1018,7 16 -
14.05.2019 22:00:00 26,1 19,4 15 8 NE 1018,4 16 -
14.05.2019 21:00:00 26,1 19,4 15 8 NE 1017,9 16 -
14.05.2019 20:00:00 26,7 19,4 15 8 NE 1017,2 16 0,0
14.05.2019 19:00:00 26,7 20,0 13 7 NE 1016,7 16 -
14.05.2019 18:00:00 27,8 20,0 28 15 NE 1016,1 16 -
14.05.2019 17:00:00 30,0 20,0 22 12 NE 1015,7 10 -
14.05.2019 16:00:00 30,6 20,0 22 12 NE 1015,8 16 -
14.05.2019 15:00:00 30,6 20,6 18 10 NE 1016,1 16 -
14.05.2019 14:00:00 31,7 20,6 24 13 NNE 1016,7 16 -
14.05.2019 13:00:00 31,1 21,1 22 12 NNE 1017,4 16 -
14.05.2019 12:00:00 30,6 21,1 18 10 N 1018,1 16 -
14.05.2019 11:00:00 28,9 21,1 18 10 NNE 1018,5 16 -
14.05.2019 10:00:00 27,8 21,7 15 8 NNE 1018,6 16 -
14.05.2019 09:00:00 25,6 23,3 15 8 NNW 1018,5 16 0,0
14.05.2019 08:00:00 23,3 22,8 15 8 NNW 1018,6 16 0,0
14.05.2019 07:00:00 24,4 21,7 13 7 N 1017,8 16 -
14.05.2019 06:00:00 24,4 21,1 9 5 NNW 1017,1 16 -
14.05.2019 05:00:00 24,4 20,6 8 4 N 1016,5 16 -
14.05.2019 04:00:00 24,4 21,1 0 0 N 1016,3 16 -
14.05.2019 03:00:00 25,0 20,6 5 3 N 1016,3 16 -
14.05.2019 02:00:00 25,6 20,6 9 5 NNE 1016,7 16 0,0
14.05.2019 01:00:00 25,6 20,6 9 5 E 1017,4 16 -
14.05.2019 00:00:00 26,1 20,6 8 4 NNE 1018,0 16 -
13.05.2019 23:00:00 26,1 21,1 9 5 N 1018,3 16 -
13.05.2019 22:00:00 26,7 21,1 15 8 NE 1018,1 16 -
13.05.2019 21:00:00 26,7 21,1 5 3 NE 1017,7 16 -
13.05.2019 20:00:00 27,2 21,1 13 7 NNE 1017,0 16 0,0
13.05.2019 19:00:00 27,8 21,1 18 10 NE 1016,5 16 -
13.05.2019 18:00:00 28,9 21,1 18 10 NE 1015,5 16 -
13.05.2019 17:00:00 30,0 21,1 18 10 NNE 1015,0 16 -
13.05.2019 16:00:00 31,1 21,1 18 10 NE 1014,9 16 -
13.05.2019 15:00:00 29,4 21,7 0 0 N 1015,3 16 -
13.05.2019 14:00:00 29,4 22,2 16 9 SW 1016,1 16 0,0
13.05.2019 13:00:00 28,3 21,1 18 10 SW 1016,8 16 0,0
13.05.2019 12:00:00 28,9 21,1 16 9 SW 1017,4 16 -
13.05.2019 11:00:00 30,0 21,1 15 8 S 1017,4 16 -
13.05.2019 10:00:00 28,9 21,7 9 5 - 1017,9 16 -
13.05.2019 09:00:00 27,8 20,6 9 5 NW 1018,0 16 -

tt = temperature
td = dewpoint
ff = wind speed
dd = wind direction
ppp = reduced air pressure
vv = visibility
rr = precipitation

Next stations